This is the latest recevied weather packets stored in our database for station/object VK5TRM-13. If no packets are shown the sender has not sent any weather packets the latest 10 day(s).
| Time | Temp. | Humidity | Pressure | Rain* | Wind** | Luminosity | Snow |
|---|---|---|---|---|---|---|---|
| 1778082305 | 11.11° C | 70% | 1026 hPa | 0.51 mm | - | - | - |
| 1778081405 | 11.67° C | 72% | 1025.9 hPa | 0.51 mm | - | - | - |
| 1778080505 | 11.67° C | 72% | 1025.9 hPa | 0.51 mm | - | - | - |
| 1778079604 | 11.11° C | 75% | 1025.6 hPa | 0.51 mm | - | - | - |
| 1778078705 | 11.11° C | 75% | 1025.6 hPa | 0.51 mm | - | - | - |
| 1778077805 | 11.67° C | 80% | 1025.2 hPa | 0.51 mm | - | - | - |
| 1778076905 | 11.67° C | 80% | 1025.2 hPa | 0.51 mm | - | - | - |
| 1778076005 | 12.22° C | 80% | 1025 hPa | 0.51 mm | - | - | - |
| 1778075105 | 12.22° C | 80% | 1025 hPa | 0.51 mm | - | - | - |
| 1778074205 | 12.22° C | 80% | 1024.8 hPa | 0.51 mm | - | - | - |
| 1778073305 | 12.22° C | 80% | 1024.8 hPa | 0.51 mm | - | - | - |
| 1778072405 | 12.78° C | 83% | 1024.7 hPa | 0.51 mm | - | - | - |
| 1778071505 | 12.78° C | 83% | 1024.7 hPa | 0.51 mm | - | - | - |
| 1778070605 | 13.33° C | 84% | 1024.5 hPa | 0.51 mm | - | - | - |
| 1778069705 | 13.33° C | 84% | 1024.5 hPa | 0.51 mm | - | - | - |
| 1778068804 | 12.78° C | 86% | 1024.2 hPa | 0.51 mm | - | - | - |
| 1778067904 | 12.78° C | 86% | 1024.2 hPa | 0.51 mm | - | - | - |
| 1778067004 | 13.33° C | 89% | 1024.1 hPa | 0.51 mm | - | - | - |
| 1778066105 | 13.33° C | 89% | 1024.1 hPa | 0.51 mm | - | - | - |
| 1778065205 | 13.89° C | 86% | 1023.5 hPa | 0.51 mm | - | - | - |
| 1778064305 | 13.89° C | 86% | 1023.5 hPa | 0.51 mm | - | - | - |
| 1778063404 | 13.89° C | 88% | 1023 hPa | 0.51 mm | - | - | - |
| 1778062504 | 13.89° C | 88% | 1023 hPa | 0.51 mm | - | - | - |
| 1778061604 | 13.33° C | 92% | 1022.6 hPa | 0.51 mm | - | - | - |
| 1778060705 | 13.33° C | 92% | 1022.6 hPa | 0.51 mm | - | - | - |
* Rain since midnight (hover to see other rain measurements)
** Current wind speed in m/s (hover to see current wind gust speed)